Simultaneous Nadir Overpasses (SNOs) Predictions

Prediction of SNOs between GOES-14 and NOAA-20 Satellite Orbit:

Table of predicted SNOs for the next 14.0 days since TLE Epoch: 10/30/2021
Index Date Time (GOES-14) GOES-14 Lat,Lon NOAA-20 Lat,Lon Distance(km) Time Diff (sec)
1 10/30/2021 08:05:06 0.21,-104.29 -0.63,-100.60 421.81 80
2 10/31/2021 20:27:02 -0.18,-104.17 -0.56,-105.89 196.94 80
3 11/01/2021 20:10:56 -0.19,-104.18 0.44,-101.36 321.18 80
4 11/03/2021 08:32:44 0.16,-104.33 0.66,-106.64 262.72 80
5 11/04/2021 08:11:19 0.18,-104.32 -0.34,-102.10 253.15 80
6 11/05/2021 20:33:13 -0.15,-104.15 -0.90,-107.39 369.82 80
7 11/06/2021 20:17:08 -0.17,-104.16 0.10,-102.85 147.98 80
8 11/08/2021 08:38:56 0.14,-104.34 0.99,-108.14 432.84 80
9 11/09/2021 08:17:31 0.15,-104.33 -0.01,-103.60 82.64 80
10 11/11/2021 20:20:40 -0.13,-104.13 -0.16,-104.37 26.58 80
11 11/12/2021 20:04:35 -0.14,-104.14 0.85, -99.83 491.48 80
